DELTA 1 DEB

Satellite information

Favourite Embed

Satellite Type and Status

DEBRISIN ORBIT

Key statistics

Satellite DELTA 1 DEB at a glance.

Uptime

18988

Days in orbit

Revolutions

≈ 12.5

Per day

Orbit

SSO

Sun Synchronous Orbit

Inclination

101.8

Latest

Satellite identification and parameters

Extended collection of information and parameters for DELTA 1 DEB.

Object identification

Identified? True

Debris? True

Object name: DELTA 1 DEB

International designator: 1973-086BA

Object number (NORAD): 7058

Object ID (CCSDS): 7058

Country: UNITED STATES OF AMERICA (US)

Current information (Y/N): Y

RCS size: SMALL

Orbital parameters

Period: 114.766 minutes

Inclination: 101.8249 deg

SMA: 7822.935 km

Apoapsis: 1447.897 km

Periapsis: 1441.703 km

RAAN: 288.3199 deg

Eccentricy: 0.0003959

Argument of periapsis: 68.749 deg

Mean anomaly: 105.6846 deg

Mean motion: 12.5472388 rev/day

Mean motion (dot): 0.00000433 rev/day2

B* drag term: 0.0029552 1/REarth

Two-line elements (TLE)

Creation date: Oct. 31, 2025, 10:56 p.m.

Reference frame: TEME

Reference center: EARTH

Epoch: Oct. 31, 2025, 4:49 p.m. UTC

TLE line 0: 0 DELTA 1 DEB

TLE line 1: 1 7058U 73086BA 25304.70104314 .00000433 00000-0 29552-2 0 9993

TLE line 2: 2 7058 101.8249 288.3199 0003959 68.7490 105.6846 12.54723880370502

Live tracking on map

Real-time ground track for satellite DELTA 1 DEB.

In-orbit conjunctions

A list of the most updated potential collisions computed for object DELTA 1 DEB.

Target Orbit TCA Probability of collision Miss distance Type
COSMOS 594 LEO 2025-02-07 18:55:10 0.0001210153 273.0 (m) PAYLOAD

Associated space launch

Meteorological satellite using radiometric imaging

DELTA 1 DEB was lifted into orbit during the mission ‘Delta 0300 | NOAA 3’, on board a Delta 0300 space rocket.

The launch took place on Nov. 6, 1973, 5:02 p.m. from Space Launch Complex 2W.

For more information about the launch, click the button.

Launch to space Delta 0300 | NOAA 3
Delta 0300 | NOAA 3

Agency: N/A

Status: Launch Successful

Launch date: Nov. 6, 1973, 5:02 p.m. UTC

Rocket: Delta 0300

Launch pad: Space Launch Complex 2W

Location: Vandenberg SFB, CA, USA

...

Latest news about this satellite

There are no fresh news available about this satellite. Check back as we update our databases every day.


Newsletter sign-up

Weekly statistics, charts and insights to help you stay on top of the space industry.